Theta_e
330 334 330 315 304 301 294 296 299 302 302 307 314 310 309 312 308 299 328 334 336 336 338 340 344 345 345 343 342 341 339 338 338 340 340 340 338 336 335 336 339 338 335 334 334 335 335 334 333
325 330 314 308 300 295 294 299 301 302 309 312 311 313 313 310 322 326 327 335 337 337 337 339 342 345 344 343 342 341 338 339 339 338 342 339 336 334 334 336 336 338 336 335 334 335 335 334 331
320 316 308 303 298 296 295 300 302 306 310 307 310 314 315 314 323 326 331 336 338 335 336 339 343 344 342 342 342 341 339 338 340 341 338 336 335 334 332 334 338 338 338 338 336 337 334 330 329
314 309 306 300 296 299 300 303 304 305 306 313 313 310 317 324 326 330 335 337 334 333 335 339 343 343 341 340 340 342 339 338 338 337 337 336 335 335 333 332 334 337 339 338 336 331 330 330 330
310 305 298 296 297 301 302 305 305 305 305 308 311 309 313 324 331 333 334 334 331 331 333 337 341 342 341 340 343 343 340 339 339 338 338 337 335 334 334 334 333 332 332 330 329 330 330 330 330
303 304 295 294 296 301 303 305 306 304 307 310 312 310 312 327 330 331 333 331 332 331 334 335 335 337 340 340 342 342 340 339 339 337 337 338 336 335 334 333 332 332 332 331 330 329 330 331 332
300 300 296 296 297 299 304 306 305 307 307 308 314 308 315 320 329 331 331 331 331 333 332 332 333 334 334 336 337 339 339 339 339 337 339 339 338 337 336 335 333 333 333 332 333 333 333 333 334
302 300 296 297 298 299 304 305 306 306 302 314 317 309 313 321 328 331 331 330 330 331 332 330 331 332 332 331 330 332 333 333 336 334 333 332 333 333 332 330 332 334 334 334 335 334 334 335 335
300 295 294 297 299 301 304 304 308 308 309 308 312 316 320 325 330 329 328 328 329 330 331 331 331 331 331 331 329 328 329 329 330 329 328 326 327 329 326 326 328 333 333 332 333 334 334 331 328
296 293 295 301 303 303 304 306 308 307 307 309 311 318 325 325 328 326 325 325 327 327 329 331 330 330 330 334 329 328 329 327 326 326 325 325 325 329 329 323 324 327 326 328 330 332 330 325 322
296 293 299 303 306 306 307 306 307 306 303 310 312 320 322 322 324 324 325 326 326 328 329 330 330 329 329 331 328 327 327 326 326 325 324 325 328 324 323 322 321 321 320 321 322 321 322 321 321
294 301 303 305 305 307 307 308 305 304 305 313 321 324 323 321 321 323 324 325 326 326 329 330 330 329 329 330 327 327 327 326 325 325 326 326 324 322 322 321 320 320 321 321 320 321 321 321 322
297 301 304 304 304 304 306 304 305 305 307 317 321 323 323 323 322 323 325 326 326 325 327 329 329 329 330 329 327 327 327 328 325 326 328 329 326 323 324 324 324 327 329 328 327 325 325 324 322
300 303 301 302 301 301 303 301 304 304 309 316 320 320 321 323 323 320 321 324 324 327 327 329 328 329 328 329 327 326 326 327 326 325 325 325 325 327 326 325 328 326 327 328 327 326 326 321 320
303 298 298 298 299 299 300 299 300 302 313 315 317 318 317 320 320 322 323 324 325 326 327 327 327 327 327 326 326 325 325 322 319 318 319 320 321 321 322 322 320 321 324 324 324 322 323 322 322
295 294 290 293 297 298 298 296 298 301 310 311 313 313 315 317 320 322 322 323 324 324 323 324 325 324 325 326 325 321 317 315 313 312 312 312 314 317 317 316 314 317 316 314 315 314 317 317 317
288 284 285 292 297 296 293 290 294 298 304 308 308 310 313 316 316 319 320 320 320 322 318 316 318 319 321 318 315 311 309 308 308 307 307 307 308 312 310 309 309 312 311 308 310 309 311 312 314
285 285 287 289 294 294 291 289 292 296 298 301 302 303 307 310 316 316 316 316 317 316 315 313 315 318 317 313 309 306 304 303 303 303 303 304 304 306 305 305 306 307 305 302 302 306 309 309 311
290 288 288 288 292 294 291 289 292 293 294 296 297 297 298 300 303 307 311 309 308 310 311 311 314 315 314 311 307 305 302 299 299 299 300 300 301 302 302 301 301 301 299 297 299 301 305 305 307
290 286 285 288 291 291 288 291 292 293 293 294 295 295 297 300 302 302 304 305 308 307 307 307 310 313 314 312 309 306 302 298 297 297 297 298 298 299 299 297 297 296 296 295 295 296 300 302 301
285 286 285 287 289 287 284 285 286 291 291 293 295 295 296 298 302 300 301 302 302 303 304 305 308 310 312 308 304 300 299 297 296 295 294 295 296 296 296 295 295 294 294 293 292 292 295 297 297
285 289 289 288 285 282 285 280 284 286 289 290 293 293 295 298 301 301 300 300 300 300 301 304 306 309 308 306 303 302 300 298 296 294 293 293 294 294 294 293 293 292 292 290 291 292 291 292 290
288 291 288 286 283 281 281 280 284 282 285 288 290 290 293 295 301 300 300 300 297 297 298 300 302 304 305 305 304 303 300 297 294 292 291 290 290 291 291 291 291 291 290 289 289 288 288 288 287
292 288 287 286 283 276 281 281 282 282 286 287 288 289 291 292 297 297 297 297 295 294 296 297 299 300 303 304 304 302 297 294 292 290 289 288 288 288 289 290 289 289 289 288 287 287 286 286 285
289 287 278 278 273 276 279 277 284 284 285 288 289 290 291 292 294 294 294 294 293 293 293 295 297 297 299 302 301 299 295 294 292 291 289 287 286 286 287 287 287 288 287 287 286 285 284 283 283
286 287 279 276 274 276 280 277 282 286 289 290 290 291 291 291 292 292 293 292 292 292 292 294 295 295 296 298 297 296 294 293 292 291 289 287 286 286 287 286 286 287 287 286 285 284 283 282 281
286 284 286 279 272 275 277 280 284 286 288 288 289 290 290 290 290 291 291 291 291 291 291 292 293 293 293 294 294 293 293 292 290 289 287 286 286 287 286 286 285 285 285 285 283 282 282 281 281
288 289 282 279 270 270 274 275 279 283 286 288 288 290 290 290 291 290 290 290 290 291 291 290 291 291 290 290 290 290 290 289 288 286 286 285 285 285 285 285 284 284 284 283 282 281 281 281 281
284 282 283 283 279 274 271 276 282 282 286 287 288 289 290 291 291 290 290 290 290 290 288 288 288 288 287 288 287 287 287 287 286 286 285 285 285 285 285 284 284 283 283 282 281 281 281 280 280
287 284 283 283 276 275 276 276 284 285 286 287 288 289 290 291 291 291 291 290 289 288 287 287 286 287 287 286 286 286 286 286 285 285 284 285 284 284 284 284 283 282 281 281 281 280 280 279 279
Wind_Speed
5 6 2 3 3 5 2 3 3 3 3 3 3 4 7 3 3 4 1 7 14 9 6 6 11 15 15 14 13 12 11 12 11 11 12 13 12 11 10 9 9 11 10 9 10 9 9 9 9
4 2 4 2 5 2 4 2 6 3 6 7 7 4 6 2 3 8 6 9 11 10 7 6 11 12 14 14 12 11 11 11 11 10 12 12 10 10 10 8 9 8 10 8 8 7 8 8 8
4 2 3 4 3 5 5 4 6 4 7 1 5 5 4 2 3 8 9 11 10 8 7 7 12 13 13 12 11 12 11 11 10 12 11 10 9 10 9 8 7 4 7 8 6 7 6 7 8
3 4 4 3 4 4 6 7 7 8 2 5 5 7 3 2 7 7 13 13 10 8 7 9 12 13 12 12 10 12 11 11 10 9 9 9 9 9 8 8 7 10 9 9 7 5 6 7 8
4 3 2 1 3 1 0 6 6 7 4 3 2 4 3 3 9 15 13 11 12 7 6 7 11 12 12 11 11 13 10 9 8 5 6 8 8 7 7 6 6 6 6 6 5 4 5 5 6
3 3 3 3 3 1 3 6 7 4 3 4 7 5 2 4 15 10 11 9 9 9 6 6 9 9 9 10 9 9 8 8 6 5 5 7 6 5 4 3 3 2 2 2 2 2 4 5 6
6 4 5 4 4 3 6 5 7 8 7 3 8 5 3 4 5 10 8 7 7 7 6 5 6 6 7 7 7 7 6 6 5 4 5 9 6 4 2 1 1 2 2 2 3 4 5 6 7
5 5 5 4 7 6 6 5 5 6 3 5 6 8 6 7 8 8 9 7 7 6 5 5 5 5 5 5 7 7 6 6 5 5 5 5 3 2 2 3 4 4 4 4 4 6 7 7 8
2 4 4 6 8 6 6 6 2 2 8 1 3 7 7 15 12 9 7 5 5 5 7 6 6 6 6 5 5 6 6 5 5 4 4 3 2 4 5 5 6 5 5 5 6 7 7 6 6
4 4 9 3 5 7 8 7 10 6 4 3 4 4 15 16 16 15 12 11 10 9 8 7 6 6 5 4 5 5 5 4 4 4 3 2 3 4 4 2 4 5 6 7 7 7 8 5 3
4 6 5 2 3 4 9 6 3 11 3 7 10 17 16 14 12 13 11 14 13 10 7 7 6 6 6 5 4 2 2 3 3 5 4 4 1 4 3 2 3 3 4 3 4 5 3 4 3
3 1 3 5 3 6 11 9 6 3 6 10 18 24 17 15 14 15 13 12 11 9 10 9 7 7 7 4 4 3 3 2 3 4 5 3 2 2 1 1 2 2 2 4 4 3 4 4 4
2 2 4 1 7 7 6 4 7 5 3 11 11 16 20 17 14 10 10 9 8 9 9 8 7 7 7 5 4 4 4 3 1 0 2 3 3 3 1 1 0 1 2 2 3 3 3 3 3
7 5 4 4 4 3 7 2 4 4 6 11 16 15 14 17 16 6 8 12 10 10 10 8 8 7 6 6 5 4 2 3 3 3 3 4 3 3 3 1 1 2 2 3 3 3 3 2 2
6 5 6 5 3 4 1 2 4 3 9 14 13 13 8 10 8 15 12 11 11 8 9 10 9 7 7 6 4 3 3 4 4 3 5 4 2 1 2 2 3 3 3 4 4 4 2 3 3
6 5 5 2 0 3 3 9 4 4 11 11 10 8 8 9 13 11 8 9 8 7 9 7 7 7 6 5 5 4 5 4 4 3 3 5 4 3 4 3 3 3 2 2 2 3 2 2 3
5 6 4 1 1 2 3 5 4 3 7 10 8 8 8 9 7 8 8 9 9 9 9 8 7 8 8 8 7 7 6 4 3 3 3 4 4 5 4 3 2 3 2 4 4 3 3 3 4
7 6 4 7 5 3 2 5 2 3 6 9 7 7 8 9 15 8 7 7 7 8 8 9 6 9 9 8 7 6 5 4 3 3 4 5 4 5 4 3 4 4 4 4 4 4 4 3 4
9 6 6 1 1 3 5 5 6 3 3 7 8 8 9 9 3 2 5 6 8 7 11 11 11 7 9 6 5 3 4 3 4 4 5 5 5 5 5 4 5 5 5 5 5 2 4 4 3
6 7 3 2 4 4 2 9 6 5 6 8 10 9 10 5 5 4 6 6 9 9 8 8 8 8 5 5 3 4 4 3 4 2 5 5 5 6 5 5 5 5 4 5 5 5 1 2 3
3 8 5 6 4 3 1 7 4 7 5 5 9 7 7 9 9 6 7 6 7 8 7 7 7 6 5 7 7 6 5 4 3 3 3 4 5 6 6 6 5 5 4 4 4 4 4 1 2
5 4 7 10 6 4 2 6 5 5 9 6 11 9 9 9 6 5 7 6 7 6 6 6 6 6 5 7 6 6 4 4 3 3 2 3 5 6 5 5 5 5 4 5 3 4 3 2 3
3 6 6 5 6 4 1 2 9 1 6 10 11 9 9 9 10 11 9 7 4 6 6 6 6 6 6 6 6 5 5 3 3 4 5 5 4 5 5 5 6 5 4 4 5 5 6 4 3
11 8 9 5 4 1 6 6 6 6 10 5 1 2 5 6 5 5 5 7 6 5 6 6 7 4 5 6 7 7 8 8 6 4 4 3 2 3 5 5 5 5 5 5 4 5 7 5 5
2 6 3 3 3 5 2 2 8 5 6 4 6 6 5 5 7 7 8 8 7 7 6 4 5 5 3 5 5 6 7 8 8 6 4 5 3 1 3 3 4 3 4 5 5 5 6 5 4
7 7 8 8 4 3 1 9 8 5 5 4 3 7 5 5 4 7 7 7 7 7 7 6 7 5 4 5 6 6 7 5 4 5 4 4 3 4 3 4 5 5 5 5 5 4 4 5 5
5 5 5 8 2 3 5 8 10 3 5 2 6 6 7 5 5 7 7 7 7 6 7 7 6 5 5 6 6 6 6 7 6 6 5 4 4 3 5 5 5 5 5 5 5 4 4 5 4
4 9 5 4 5 4 4 6 7 5 7 6 7 8 7 5 6 6 7 7 6 6 6 5 6 7 6 6 5 5 6 6 6 6 6 6 5 5 5 5 5 5 5 5 5 4 4 5 3
3 4 4 5 4 6 1 8 7 6 9 12 10 8 9 8 7 8 7 7 7 5 6 7 7 7 6 6 5 7 6 6 5 5 5 5 5 5 5 5 5 5 5 4 5 5 4 5 5
1 5 5 7 6 1 3 9 0 5 7 7 7 8 8 7 8 7 8 7 7 7 6 7 6 7 7 6 6 6 6 6 6 5 5 5 6 5 6 5 5 4 4 4 5 4 4 5 5
Wind_Direction
90 111 94 36 63 67 198 212 140 132 95 319 77 138 143 56 137 185 136 124 127 137 140 129 129 122 118 114 112 108 103 101 103 106 103 95 84 79 84 81 76 89 95 85 78 75 67 56 44
121 116 49 71 99 97 259 229 145 182 152 146 93 76 48 84 92 121 106 134 133 137 129 124 130 126 129 124 123 118 114 113 112 111 106 92 84 83 83 84 79 79 99 97 82 80 67 47 35
125 44 89 117 119 179 189 186 152 118 152 124 98 59 103 131 93 134 135 132 133 126 129 136 140 135 126 127 131 133 127 123 116 114 103 98 94 88 84 86 66 112 112 100 87 81 50 33 32
140 16 28 101 219 239 185 166 151 135 151 53 111 71 46 240 160 146 135 136 132 134 133 143 141 143 141 139 147 144 135 132 124 117 112 107 99 93 84 79 65 59 67 70 65 49 39 32 26
46 61 76 251 257 290 235 141 160 124 110 81 83 125 60 35 112 131 137 140 140 139 144 147 151 149 147 145 135 152 135 139 128 102 136 115 106 104 96 85 72 63 62 64 61 45 30 19 10
60 101 82 224 244 46 65 157 130 92 113 152 82 89 74 123 131 148 140 140 142 143 144 148 148 148 147 142 131 129 135 136 124 100 103 142 128 121 114 105 93 82 68 57 36 9 348 338 335
133 111 204 183 156 113 164 142 139 134 136 165 143 89 96 142 146 136 131 124 128 134 136 137 138 143 134 128 126 127 125 121 115 90 115 133 139 135 132 148 230 253 273 267 297 291 293 307 314
124 112 154 193 178 198 167 138 136 123 154 106 148 158 171 182 152 121 128 130 127 129 133 137 136 138 144 148 144 139 140 144 143 126 120 130 147 167 210 233 254 261 274 280 287 293 293 310 328
120 77 200 199 167 166 158 126 136 83 122 31 136 154 162 148 138 130 134 127 135 155 161 161 164 163 160 158 158 152 154 154 159 164 174 182 221 239 218 235 257 274 297 303 300 295 306 329 327
122 143 212 196 164 165 162 137 150 114 139 43 50 61 123 143 156 155 165 168 176 179 183 177 171 166 159 160 159 177 177 180 181 188 187 216 235 242 218 300 304 319 327 319 314 313 309 316 300
175 183 180 231 189 165 136 124 136 124 212 199 165 146 146 155 166 167 176 174 182 186 181 183 172 164 165 175 179 197 191 185 188 192 197 216 301 27 24 358 344 330 332 331 325 314 312 300 291
160 214 152 194 182 128 147 128 109 169 207 163 163 159 157 167 176 180 179 179 179 178 184 181 174 172 185 177 185 185 193 212 211 197 200 164 109 65 38 22 326 323 310 302 293 287 277 277 282
35 170 69 84 98 85 98 120 151 182 69 118 142 160 172 177 184 187 180 179 178 182 188 185 173 180 186 190 181 185 200 205 250 263 159 147 128 119 93 7 307 3 329 324 326 304 279 295 307
204 125 102 28 66 60 117 118 126 195 123 132 157 175 184 186 187 159 174 185 184 187 188 182 180 186 174 195 185 196 190 149 114 108 107 118 160 152 142 203 266 289 287 288 323 319 332 329 331
152 109 52 23 4 96 100 60 194 117 144 157 175 180 184 196 181 198 190 190 184 192 180 177 178 178 181 173 145 127 117 102 91 79 71 68 52 58 102 40 12 348 338 14 10 358 34 47 71
84 50 136 300 351 0 94 222 226 139 145 180 182 185 192 202 205 203 189 192 187 166 170 157 158 160 150 123 109 86 72 77 78 69 64 51 37 30 46 59 21 0 1 359 350 19 9 34 51
24 167 141 98 212 102 91 235 210 155 171 194 193 193 203 214 228 214 203 196 181 171 152 149 149 147 125 101 91 83 76 71 66 62 61 52 49 54 71 65 13 353 8 24 358 20 25 40 63
156 125 124 149 216 121 147 266 208 167 173 206 205 203 215 219 224 215 207 188 163 155 147 138 134 130 117 108 100 87 80 66 58 60 54 52 49 56 75 63 40 24 31 18 11 23 32 58 71
124 113 123 62 52 154 192 256 237 211 203 210 215 217 225 233 251 205 176 148 129 139 144 148 144 146 135 131 123 112 113 90 59 51 53 50 48 43 45 42 38 31 42 22 10 359 46 40 16
111 122 108 62 23 80 170 257 267 242 239 208 208 221 225 208 215 174 142 150 159 151 142 137 143 152 148 123 120 125 135 99 99 76 53 45 48 42 54 48 42 38 44 30 24 31 29 82 17
82 145 166 146 124 58 76 299 234 256 237 228 244 224 212 209 199 172 155 148 133 140 146 145 150 147 136 116 111 88 86 74 83 55 54 33 55 54 59 58 60 53 54 47 29 24 40 94 13
134 158 120 130 109 186 34 261 267 238 251 233 243 221 216 198 180 164 160 152 148 137 126 126 133 141 141 147 130 150 144 144 165 132 116 77 58 60 63 70 70 64 55 48 25 23 28 48 27
119 98 107 103 90 95 301 91 266 11 262 241 238 228 210 206 184 181 177 149 125 125 129 134 137 135 142 150 148 143 126 109 109 110 112 86 62 62 67 67 65 62 54 48 44 32 32 33 61
144 89 52 57 79 343 208 158 262 196 212 259 205 164 195 191 164 129 108 120 126 127 137 149 148 152 160 162 156 150 145 138 132 134 124 119 88 62 59 67 70 67 63 53 47 45 47 45 60
79 116 34 19 358 219 4 197 254 243 247 248 270 199 175 133 146 150 158 165 151 160 156 149 158 159 157 160 156 155 144 145 146 152 152 148 136 88 77 76 71 66 65 61 61 60 55 43 57
174 162 155 177 199 196 110 231 244 208 286 278 236 165 162 150 145 169 173 158 164 170 170 167 173 151 132 136 140 133 136 141 141 148 146 155 149 136 120 99 86 81 78 69 63 60 61 56 55
186 176 127 102 35 67 220 293 292 247 252 170 146 155 182 180 177 178 172 176 172 171 184 181 162 128 141 147 143 144 144 143 148 149 140 148 131 125 117 109 102 85 78 74 72 70 69 72 60
150 148 82 12 127 258 266 274 245 240 236 213 197 209 196 193 178 176 175 177 187 188 187 166 159 166 159 143 140 140 143 141 142 139 150 145 133 123 125 115 104 94 88 92 94 87 72 76 57
122 145 70 118 144 171 217 259 221 228 211 202 209 210 199 199 193 186 190 195 194 185 175 174 170 153 155 149 144 145 151 144 136 142 146 143 130 139 132 124 123 129 126 109 96 89 88 83 74
355 167 159 187 203 209 146 272 195 268 261 207 212 214 215 201 194 189 190 188 184 185 175 179 171 165 166 161 156 158 143 143 147 142 145 150 150 145 140 145 135 128 122 129 131 122 102 103 90